Regional Weather Roundup
Issued by NWS Upton, NY

Current Version | Previous Version | Text Only | Print | Product List | Glossary Off
Versions: 1 2 3 4 5 6 7 8 9 10 11 12 13 14 15 16 17 18 19 20 21 22 23 24 25 26 27 28 29 30 31 32 33 34 35 36 37 38 39 40 41 42 43 44 45 46 47 48 49 50
453 ASUS41 KOKX 111208 RWROKX REGIONAL WEATHER ROUNDUP NATIONAL WEATHER SERVICE NEW YORK NY 700 AM EST MON DEC 11 2017 NOTE: "FAIR" INDICATES FEW OR NO CLOUDS BELOW 12,000 FEET WITH NO SIGNIFICANT WEATHER AND/OR OBSTRUCTIONS TO VISIBILITY. NYZ071-072-176-178-NJZ106-104-111300- NEW YORK CITY METRO AREA CITY SKY/WX TMP DP RH WIND PRES REMARKS Central Park CLOUDY 34 25 69 MISG 30.03R Bronx Bot Gard N/A 34 23 64 SW7 30.01R WCI 28 Bronx Lehman C N/A 34 25 69 SW5 N/A WCI 30 LaGuardia APRT MOCLDY 35 24 64 SW9 30.01S WCI 28 Queens College N/A 34 27 75 SW8 N/A WCI 27 Kennedy INTL MOCLDY 33 29 85 SW15 30.04S WCI 23 Breezy Point N/A 32 N/A N/A SW8 N/A WCI 25 Brooklyn Coll N/A 34 28 80 SW8 N/A WCI 27 Staten Island N/A 32 28 86 SW3 N/A Newark/Liberty CLOUDY 32 26 78 SW9 30.02S WCI 24 Teterboro CLOUDY 34 24 67 SW7 30.01R WCI 28 $$ NYZ177-179-078>081-111300- LONG ISLAND NEW YORK CITY SKY/WX TMP DP RH WIND PRES REMARKS Jones Beach N/A 34 N/A N/A W10 N/A WCI 26 Wantagh N/A 34 28 80 SW8 N/A WCI 27 Matinecock PT N/A 36 N/A N/A W21G26 N/A WCI 24 Farmingdale MOCLDY 32 28 85 SW7 30.02S WCI 26 MacArthur/ISP FLURRIES 32 30 92 W9 30.02R WCI 24 Shirley FLURRIES 33 28 81 W9 30.02R WCI 25 Mt Sinai Harb N/A N/A N/A N/A SW5 N/A Westhampton CLOUDY 33 23 66 W12 30.02R WCI 24 East Hampton CLOUDY 33 22 63 W7 30.00R WCI 27 Southold N/A 36 23 60 SW9 N/A WCI 29 Montauk N/A 38 24 57 SW8 30.01R WCI 32 $$ NYZ052-065-067-111300- HUDSON VALLEY CITY SKY/WX TMP DP RH WIND PRES REMARKS White Plains CLOUDY 32 22 66 W12 29.98R WCI 23 Larchmont Harb N/A 34 N/A N/A SW12 N/A WCI 25 Croton On Huds N/A 34 N/A N/A SW9 N/A WCI 26 Somers N/A 32 23 69 SW5 N/A WCI 27 Brewster N/A 32 23 69 S1 N/A Newburgh CLOUDY 30 25 80 W7 29.98R WCI 23 Montgomery MOCLDY 29 21 72 S7 29.96S WCI 22 Otisville N/A 30 23 74 W2 N/A Warwick N/A 32 23 69 W6 N/A WCI 26 Suffern N/A 32 23 69 SW3 N/A Poughkeepsie CLOUDY 32 21 64 S5 29.97S WCI 27 Albany CLOUDY 29 21 72 S6 29.94R WCI 23 $$ NJZ001-105-106-008-010-013-015-019>022-104-111300- NEW JERSEY CITY SKY/WX TMP DP RH WIND PRES REMARKS Newark/Liberty CLOUDY 32 26 78 SW9 30.02S WCI 24 Teterboro CLOUDY 34 24 67 SW7 30.01R WCI 28 Caldwell CLOUDY 32 23 69 SW5 30.01S WCI 27 Somerville CLOUDY 29 25 85 CALM 30.01R Linden CLOUDY 32 27 81 CALM 30.03S Perth Amboy N/A N/A N/A N/A SW3 N/A Sussex CLOUDY 29 23 78 SW3 29.98R Andover NOT AVBL Trenton CLOUDY 31 28 89 S3 30.02R Millville CLOUDY 33 31 92 CALM 30.05R Atlantic City CLOUDY 36 29 75 S3 30.05S Wrightstown CLOUDY 31 29 94 S6 30.01R WCI 25 Toms River CLOUDY 31 30 96 SW5 30.05R WCI 26 Belmar CLOUDY 30 28 92 S3 30.04S $$ PAZ047>061-062-071-111300- EASTERN PENNSYLVANIA CITY SKY/WX TMP DP RH WIND PRES REMARKS Philadelphia CLOUDY 35 29 78 SW8 30.05R WCI 29 Allentown PTCLDY 30 20 66 W3 30.01R Scranton CLOUDY 30 21 69 W6 29.96R WCI 24 $$ CTZ002-004>006-009-010-012-RIZ004-006-007-MAZ004-011-015-111300- SOUTHERN NEW ENGLAND IN CT CITY SKY/WX TMP DP RH WIND PRES REMARKS Bradley INTL CLOUDY 31 23 72 SW7 29.97R WCI 24 Hartford CLOUDY 33 23 66 S5 29.98S WCI 29 Danbury CLOUDY 31 21 66 SW6 29.99R WCI 25 Wtrbury/Oxford CLOUDY 29 23 78 SW5 29.96R WCI 24 Norwalk Harbor N/A 34 N/A N/A SW16 N/A WCI 23 Bridgeport CLOUDY 35 25 66 W12G18 30.00R WCI 27 Meriden CLOUDY 32 21 64 SW7 29.98S WCI 26 New Haven CLOUDY 35 25 66 SW8 30.00R WCI 29 Chester N/A 32 23 69 VRB6 29.97S WCI 26 Groton CLOUDY 35 21 56 W10 29.99R WCI 27 Wilimantic CLOUDY 33 22 63 SW6 29.98R WCI 28 IN RI CITY SKY/WX TMP DP RH WIND PRES REMARKS Providence CLOUDY 33 23 66 SW8 29.99R WCI 26 Block Island N/A N/A N/A N/A MISG N/A Westerly CLOUDY 35 22 58 W5 29.99R WCI 31 IN MA CITY SKY/WX TMP DP RH WIND PRES REMARKS Boston CLOUDY 32 23 69 SW15 29.96R WCI 22 Worcester CLOUDY 27 20 75 SW12 29.91R WCI 17 Westfield CLOUDY 31 22 69 SW9 29.95R WCI 23 Provincetown CLOUDY 36 24 62 W16 29.98R WCI 26 Nantucket CLOUDY 40 29 64 W15G22 29.98R WCI 32 $$ ANZ330-335-338-340-345-350-353-355-111300- COASTAL MARINE OBSERVATIONS STATION/POSITION TIME SKY/WX TEMP WIND PRES VSBY WAVE AIR SEA DIR/SP/G HT/PER (UTC) (F) (DEG/KT/KT) (MB) (MI) (FT/S) NY HARB ENTRANCE 1150 37 51 250/ 12/ 14 1016.7 3/10 20 S FIRE ISLAND 1150 37 53 280/ 19/ 25 1017.0 5/ 5 GREAT SOUTH BAY 1130 34 45 260/ 17/ 19 N/A HUDSON CANYON 1050 45 56 260/ 17/ 21 1015.7 5/ 6 KINGS POINT 1130 36 45 300/ 8/ 14 1017.1 EXECUTION ROCKS 1130 37 220/ 14/ 19 N/A WESTERN LI SOUND 1049 37 250/ 16/ 23 N/A 2/ 3 CENTRAL LI SOUND 1115 38 250/ 19/ 25 N/A 4 ROBBINS REEF 1130 33 230/ 11/ 12 1017.4 $$ >>>>>>>>>>>>>>>>>>>>>>>>>>>> KEY <<<<<<<<<<<<<<<<<<<<<<<<<<< > < > SKY/WX - Sky Condition/Present Weather < > TMP - Temperature in Fahrenheit < > DP - Dew Point in Fahrenheit < > RH - Relative Humidity in Percent < > WIND - Direction (from) and Speed in MPH < > PRES - Mean Sea Level Pressure (inches of Hg) < > WCI - Wind Chill Index < > VSB - VISIBILITY IN MILES < > HX - HEAT INDEX < > TC - TEMPERATURE IN CELSIUS < > VRB - VARIABLE WIND DIRECTION < > < >>>>>>>>>>>>>>>>>>>>>>>>>>>> KEY <<<<<<<<<<<<<<<<<<<<<<<<<<<

USA.gov is the U.S. government's official web portal to all federal, state and local government web resources and services.